When you browse on this site, cookies collect data to enhance your experience and personalize the content and advertising you see.
Visit our Privacy Policy to learn more. By continuing to use the site, you agree to this use of cookies and data.
  • En España
  • Lista de países
  • Para 7 días
  • Temperatura del agua
  • Mapa Satelital
  • El tiempo en el mapa
  • Informadores
  • user-avatar
    Iniciar sesión

    Tiempo cada hora Kalian

    Hoy, 21 Abril, Domingo

    Tiempo Temperatura Precipitaciones Viento Presión Humedad
    00:00 +31°C° 0 mm 1 mps 754 mmHg 47%
    01:00 +31°C° 0 mm 1 mps 754 mmHg 51%
    02:00 +30°C° 0 mm 1 mps 753 mmHg 54%
    03:00 +30°C° 0 mm 1 mps 753 mmHg 56%
    04:00 +29°C° 0 mm 1 mps 753 mmHg 57%
    05:00 +29°C° 0 mm 1 mps 753 mmHg 59%
    06:00 +30°C° 0 mm 1 mps 754 mmHg 55%
    07:00 +31°C° 0 mm 1 mps 754 mmHg 50%
    08:00 +30°C° 0 mm 0 mps 755 mmHg 45%
    09:00 +34°C° 0 mm 1 mps 755 mmHg 38%
    10:00 +36°C° 0 mm 1 mps 754 mmHg 31%
    11:00 +40°C° 0 mm 1 mps 754 mmHg 24%
    12:00 +41°C° 0 mm 2 mps 754 mmHg 21%
    13:00 +42°C° 0 mm 2 mps 753 mmHg 19%
    14:00 +44°C° 0 mm 3 mps 752 mmHg 16%
    15:00 +43°C° 0 mm 3 mps 752 mmHg 17%
    16:00 +43°C° 0 mm 3 mps 752 mmHg 17%
    17:00 +42°C° 0 mm 4 mps 752 mmHg 18%
    18:00 +40°C° 0 mm 3 mps 752 mmHg 20%
    19:00 +38°C° 0 mm 2 mps 752 mmHg 23%
    20:00 +35°C° 0 mm 1 mps 753 mmHg 26%
    21:00 +34°C° 0 mm 1 mps 753 mmHg 30%
    22:00 +33°C° 0 mm 1 mps 754 mmHg 34%
    23:00 +32°C° 0 mm 2 mps 754 mmHg 38%

    Mañana, 22 Abril, Lunes

    Tiempo Temperatura Precipitaciones Viento Presión Humedad
    00:00 +31°C° 0 mm 1 mps 754 mmHg 42%
    01:00 +30°C° 0 mm 1 mps 754 mmHg 46%
    02:00 +30°C° 0 mm 1 mps 753 mmHg 50%
    03:00 +29°C° 0 mm 1 mps 753 mmHg 51%
    04:00 +29°C° 0 mm 1 mps 753 mmHg 51%
    05:00 +28°C° 0 mm 1 mps 753 mmHg 52%
    06:00 +30°C° 0 mm 1 mps 754 mmHg 46%
    07:00 +31°C° 0 mm 1 mps 755 mmHg 40%
    08:00 +32°C° 0 mm 1 mps 755 mmHg 35%
    09:00 +35°C° 0 mm 1 mps 755 mmHg 29%
    10:00 +37°C° 0 mm 1 mps 755 mmHg 23%
    11:00 +41°C° 0 mm 1 mps 755 mmHg 17%
    12:00 +42°C° 0 mm 2 mps 754 mmHg 15%
    13:00 +43°C° 0 mm 2 mps 754 mmHg 13%
    14:00 +45°C° 0 mm 2 mps 753 mmHg 11%
    15:00 +44°C° 0 mm 3 mps 753 mmHg 13%
    16:00 +43°C° 0 mm 4 mps 752 mmHg 16%
    17:00 +42°C° 0 mm 5 mps 752 mmHg 18%
    18:00 +40°C° 0 mm 3 mps 753 mmHg 22%
    19:00 +38°C° 0 mm 2 mps 753 mmHg 26%
    20:00 +35°C° 0 mm 1 mps 754 mmHg 30%
    21:00 +34°C° 0 mm 1 mps 754 mmHg 33%
    22:00 +34°C° 0 mm 1 mps 754 mmHg 35%
    23:00 +33°C° 0 mm 1 mps 755 mmHg 38%

    Pasado mañana, 23 Abril, Martes

    Tiempo Temperatura Precipitaciones Viento Presión Humedad
    00:00 +32°C° 0 mm 1 mps 754 mmHg 42%
    01:00 +31°C° 0 mm 1 mps 754 mmHg 46%
    02:00 +31°C° 0 mm 1 mps 754 mmHg 49%
    03:00 +30°C° 0 mm 1 mps 754 mmHg 50%
    04:00 +30°C° 0 mm 1 mps 754 mmHg 51%
    05:00 +28°C° 0 mm 0 mps 754 mmHg 52%
    06:00 +29°C° 0 mm 0 mps 754 mmHg 48%
    07:00 +32°C° 0 mm 1 mps 755 mmHg 43%
    08:00 +33°C° 0 mm 1 mps 755 mmHg 39%
    09:00 +36°C° 0 mm 1 mps 755 mmHg 32%
    10:00 +39°C° 0 mm 2 mps 755 mmHg 26%
    11:00 +42°C° 0 mm 2 mps 755 mmHg 20%
    12:00 +43°C° 0 mm 2 mps 754 mmHg 17%
    13:00 +46°C° 0 mm 3 mps 754 mmHg 15%
    14:00 +47°C° 0 mm 3 mps 753 mmHg 12%
    15:00 +47°C° 0 mm 4 mps 752 mmHg 15%
    16:00 +46°C° 0 mm 5 mps 752 mmHg 17%
    17:00 +45°C° 0 mm 6 mps 752 mmHg 20%
    18:00 +42°C° 0 mm 5 mps 752 mmHg 24%
    19:00 +39°C° 0 mm 3 mps 753 mmHg 29%
    20:00 +37°C° 0 mm 2 mps 754 mmHg 33%
    21:00 +36°C° 0 mm 2 mps 754 mmHg 38%
    22:00 +35°C° 0 mm 2 mps 755 mmHg 43%
    23:00 +34°C° 0 mm 2 mps 755 mmHg 48%

    24 Abril, Miércoles

    Tiempo Temperatura Precipitaciones Viento Presión Humedad
    00:00 +32°C° 0 mm 1 mps 755 mmHg 51%
    01:00 +32°C° 0 mm 1 mps 754 mmHg 55%
    02:00 +31°C° 0 mm 1 mps 754 mmHg 58%
    03:00 +31°C° 0 mm 1 mps 754 mmHg 59%
    04:00 +28°C° 0 mm 0 mps 754 mmHg 61%
    05:00 +28°C° 0 mm 0 mps 754 mmHg 63%
    06:00 +29°C° 0 mm 0 mps 755 mmHg 58%
    07:00 +30°C° 0 mm 0 mps 756 mmHg 54%
    08:00 +31°C° 0 mm 0 mps 757 mmHg 50%
    09:00 +35°C° 0 mm 1 mps 756 mmHg 42%
    10:00 +39°C° 0 mm 2 mps 756 mmHg 35%
    11:00 +41°C° 0 mm 2 mps 756 mmHg 27%
    12:00 +43°C° 0 mm 3 mps 755 mmHg 25%
    13:00 +45°C° 0 mm 4 mps 754 mmHg 23%
    14:00 +47°C° 0 mm 4 mps 753 mmHg 20%
    15:00 +45°C° 0 mm 4 mps 753 mmHg 23%
    16:00 +45°C° 0 mm 5 mps 753 mmHg 25%
    17:00 +42°C° 0 mm 5 mps 752 mmHg 28%
    18:00 +41°C° 0 mm 4 mps 753 mmHg 30%
    19:00 +38°C° 0 mm 3 mps 754 mmHg 32%
    20:00 +37°C° 0 mm 2 mps 754 mmHg 35%
    21:00 +36°C° 0 mm 2 mps 754 mmHg 38%
    22:00 +35°C° 0 mm 2 mps 754 mmHg 42%
    23:00 +34°C° 0 mm 2 mps 755 mmHg 46%

    25 Abril, Jueves

    Tiempo Temperatura Precipitaciones Viento Presión Humedad
    00:00 +33°C° 0 mm 1 mps 754 mmHg 48%
    01:00 +32°C° 0 mm 1 mps 754 mmHg 50%
    02:00 +31°C° 0 mm 1 mps 753 mmHg 53%
    03:00 +29°C° 0 mm 0 mps 754 mmHg 53%
    04:00 +29°C° 0 mm 0 mps 754 mmHg 53%
    05:00 +29°C° 0 mm 0 mps 754 mmHg 53%
    06:00 +30°C° 0 mm 0 mps 755 mmHg 50%
    07:00 +31°C° 0 mm 0 mps 755 mmHg 47%
    08:00 +32°C° 0 mm 0 mps 756 mmHg 43%
    09:00 +36°C° 0 mm 1 mps 756 mmHg 36%
    10:00 +40°C° 0 mm 2 mps 756 mmHg 29%
    11:00 +43°C° 0 mm 3 mps 756 mmHg 22%
    12:00 +44°C° 0 mm 3 mps 755 mmHg 20%
    13:00 +45°C° 0 mm 4 mps 754 mmHg 17%
    14:00 +47°C° 0 mm 4 mps 753 mmHg 15%
    15:00 +47°C° 0 mm 5 mps 753 mmHg 15%
    16:00 +46°C° 0 mm 5 mps 752 mmHg 15%
    17:00 +46°C° 0 mm 6 mps 752 mmHg 15%
    18:00 +43°C° 0 mm 4 mps 753 mmHg 16%
    19:00 +40°C° 0 mm 3 mps 753 mmHg 17%
    20:00 +39°C° 0 mm 2 mps 754 mmHg 18%
    21:00 +38°C° 0 mm 2 mps 754 mmHg 22%
    22:00 +36°C° 0 mm 2 mps 754 mmHg 25%
    23:00 +35°C° 0 mm 2 mps 754 mmHg 29%

    26 Abril, Viernes

    Tiempo Temperatura Precipitaciones Viento Presión Humedad
    00:00 +35°C° 0 mm 2 mps 753 mmHg 33%
    01:00 +33°C° 0 mm 1 mps 753 mmHg 37%
    02:00 +32°C° 0 mm 1 mps 752 mmHg 41%
    03:00 +32°C° 0 mm 1 mps 752 mmHg 43%
    04:00 +31°C° 0 mm 1 mps 753 mmHg 44%
    05:00 +29°C° 0 mm 0 mps 753 mmHg 45%
    06:00 +30°C° 0 mm 0 mps 753 mmHg 43%
    07:00 +31°C° 0 mm 0 mps 754 mmHg 41%
    08:00 +32°C° 0 mm 0 mps 755 mmHg 38%
    09:00 +37°C° 0 mm 1 mps 755 mmHg 32%
    10:00 +41°C° 0 mm 2 mps 755 mmHg 26%
    11:00 +44°C° 0 mm 3 mps 755 mmHg 20%
    12:00 +45°C° 0 mm 3 mps 754 mmHg 18%
    13:00 +46°C° 0 mm 3 mps 753 mmHg 16%
    14:00 +48°C° 0 mm 3 mps 752 mmHg 14%
    15:00 +48°C° 0 mm 4 mps 752 mmHg 14%
    16:00 +48°C° 0 mm 5 mps 752 mmHg 15%
    17:00 +47°C° 0 mm 6 mps 751 mmHg 15%
    18:00 +45°C° 0 mm 5 mps 752 mmHg 16%
    19:00 +43°C° 0 mm 4 mps 752 mmHg 16%
    20:00 +40°C° 0 mm 2 mps 753 mmHg 17%
    21:00 +39°C° 0 mm 2 mps 753 mmHg 22%
    22:00 +38°C° 0 mm 2 mps 753 mmHg 26%
    23:00 +36°C° 0 mm 2 mps 753 mmHg 31%
    Mostrar más